DW0243 Weather Reports


time (UTC)temp
C
wind
direction
speed
KPH
gust
KPH
rain 1hr
cm
rain 24hr
cm
rain mn
cm
humidity
%
barometer
mb
20260508092437 13 103 3.2 6.4 0.00 0.00 0.00 72 1018.5
20260508090437 12 72 6.4 11.3 0.00 0.00 0.00 75 1018.6
20260508085437 12 113 4.8 12.9 0.00 0.00 0.00 76 1018.7
20260508084438 12 115 0.0 8.0 0.00 0.00 0.00 78 1018.7
20260508082438 11 43 3.2 4.8 0.00 0.00 0.00 79 1018.8
20260508081438 11 40 3.2 6.4 0.00 0.00 0.00 79 1018.8
20260508075438 11 96 3.2 9.7 0.00 0.00 0.00 80 1018.9
20260508074437 11 123 3.2 4.8 0.00 0.00 0.00 82 1018.9
20260508073438 10 65 1.6 6.4 0.00 0.00 0.00 84 1018.9
20260508072438 10 63 0.0 6.4 0.00 0.00 0.00 83 1018.9
20260508071438 10 75 0.0 8.0 0.00 0.00 0.00 86 1018.9
20260508070436 9 85 0.0 0.0 0.00 0.00 0.00 86 1018.8
20260508065434 9 85 0.0 4.8 0.00 0.00 0.00 88 1018.8
20260508064437 8 84 3.2 6.4 0.00 0.00 0.00 89 1018.6
20260508063438 8 84 3.2 6.4 0.00 0.00 0.00 91 1018.5
20260508062434 8 82 1.6 3.2 0.00 0.00 0.00 91 1018.6
20260508060449 8 82 0.0 0.0 0.00 0.00 0.00 93 1018.4
20260508053433 7 82 0.0 0.0 0.00 0.00 0.00 94 1018.3
20260508052430 7 82 0.0 0.0 0.00 0.03 0.00 94 1018.3
20260508051429 7 82 0.0 0.0 0.00 0.03 0.00 94 1018.0
20260508045427 7 82 0.0 0.0 0.00 0.03 0.00 95 1017.9
20260508044426 7 82 0.0 0.0 0.00 0.03 0.00 95 1018.0
20260508043429 6 82 0.0 0.0 0.00 0.03 0.00 95 1017.8
20260508041428 6 82 0.0 0.0 0.00 0.03 0.00 95 1017.9
20260508040428 6 82 0.0 0.0 0.00 0.03 0.00 95 1017.8
20260508035422 6 82 0.0 0.0 0.00 0.03 0.00 94 1017.8
20260508034422 6 82 0.0 0.0 0.00 0.03 0.00 94 1017.8
20260508033420 6 82 0.0 0.0 0.00 0.03 0.00 94 1017.8
20260508032422 6 82 0.0 0.0 0.00 0.03 0.00 95 1017.7
20260508031419 6 82 0.0 0.0 0.00 0.03 0.00 94 1017.8
20260508030419 6 82 0.0 0.0 0.00 0.03 0.00 94 1017.7
20260508022421 7 82 0.0 0.0 0.00 0.03 0.00 94 1017.6
20260508020421 7 82 0.0 0.0 0.00 0.03 0.00 93 1017.6
20260508015418 7 82 0.0 0.0 0.00 0.03 0.00 93 1017.7
20260508014418 8 82 0.0 0.0 0.00 0.03 0.00 93 1017.7
20260508013420 8 82 0.0 0.0 0.00 0.03 0.00 93 1017.6
20260508012421 8 82 0.0 0.0 0.00 0.03 0.00 93 1017.5
20260508011418 8 82 1.6 3.2 0.00 0.03 0.00 93 1017.4
20260508010418 8 83 0.0 4.8 0.00 0.03 0.00 93 1017.4
20260508005412 8 84 0.0 6.4 0.00 0.03 0.00 93 1017.5
20260508004412 8 90 1.6 9.7 0.00 0.03 0.00 93 1017.6
20260508003412 8 78 0.0 4.8 0.00 0.03 0.00 93 1017.7
20260508002413 8 78 1.6 6.4 0.00 0.03 0.00 93 1017.6
20260508001414 8 75 0.0 6.4 0.00 0.03 0.00 93 1017.7
20260508000412 8 73 1.6 9.7 0.00 0.03 0.00 93 1017.9
20260507235409 8 76 3.2 6.4 0.00 0.03 0.00 92 1017.9
20260507234409 8 82 1.6 6.4 0.00 0.03 0.00 92 1017.9
20260507233407 8 89 0.0 6.4 0.00 0.03 0.00 92 1017.9
20260507231410 8 105 3.2 11.3 0.00 0.03 0.00 92 1018.0
20260507230404 8 91 4.8 8.0 0.00 0.03 0.00 92 1017.8
20260507225406 8 84 0.0 11.3 0.00 0.03 0.00 93 1018.0
20260507224408 8 84 3.2 11.3 0.00 0.03 0.00 93 1017.9
20260507223407 8 87 1.6 4.8 0.00 0.03 0.00 92 1017.8
20260507222403 8 86 1.6 4.8 0.00 0.03 0.00 92 1017.7
20260507221405 8 86 1.6 9.7 0.00 0.03 0.00 92 1017.7
20260507220402 9 90 1.6 6.4 0.00 0.03 0.00 93 1017.5
20260507215401 9 87 3.2 6.4 0.00 0.03 0.03 93 1017.5
20260507214402 9 95 3.2 9.7 0.00 0.03 0.03 93 1017.4
20260507212401 9 100 0.0 4.8 0.00 0.03 0.03 93 1017.4
20260507211402 9 104 3.2 9.7 0.00 0.03 0.03 93 1017.4
20260507210404 9 109 3.2 6.4 0.00 0.03 0.03 93 1017.5
20260507205400 9 111 1.6 9.7 0.00 0.03 0.03 92 1017.3
20260507204402 9 119 1.6 9.7 0.00 0.03 0.03 92 1017.2
20260507203407 10 88 3.2 9.7 0.00 0.03 0.03 92 1017.2
20260507202402 10 72 3.2 11.3 0.00 0.03 0.03 92 1017.1
20260507200401 10 76 0.0 6.4 0.00 0.03 0.03 92 1017.0
20260507195403 10 74 0.0 11.3 0.00 0.03 0.03 92 1016.9
20260507194402 10 90 1.6 8.0 0.00 0.03 0.03 92 1016.8
20260507193401 10 95 3.2 11.3 0.00 0.03 0.03 92 1016.8
20260507192401 10 69 3.2 9.7 0.00 0.03 0.03 91 1016.7
20260507191401 10 92 6.4 9.7 0.00 0.03 0.03 91 1016.6
20260507190402 10 95 4.8 9.7 0.00 0.03 0.03 90 1016.6
20260507184401 10 105 3.2 12.9 0.00 0.03 0.03 90 1016.3
20260507183400 11 77 4.8 11.3 0.00 0.03 0.03 89 1016.3
20260507182402 11 80 4.8 9.7 0.00 0.03 0.03 88 1016.2
20260507181405 11 55 4.8 8.0 0.00 0.03 0.03 88 1016.1
20260507180401 11 79 1.6 6.4 0.00 0.03 0.03 87 1015.9
20260507175405 11 79 1.6 3.2 0.00 0.03 0.03 86 1015.9
20260507173401 11 79 1.6 4.8 0.00 0.03 0.03 85 1015.8
20260507172402 11 79 3.2 6.4 0.00 0.03 0.03 86 1015.7
20260507164403 12 78 1.6 6.4 0.00 0.03 0.03 85 1015.5
20260507163413 12 76 0.0 6.4 0.00 0.03 0.03 85 1015.4
20260507162357 12 76 3.2 8.0 0.00 0.03 0.03 85 1015.4
20260507161358 12 119 6.4 11.3 0.00 0.03 0.03 84 1015.3
20260507160359 12 76 3.2 12.9 0.00 0.03 0.03 83 1015.2
20260507155353 12 79 4.8 12.9 0.00 0.03 0.03 82 1015.3
20260507154355 12 155 4.8 9.7 0.00 0.03 0.03 81 1015.1
20260507153356 12 80 6.4 8.0 0.00 0.03 0.03 80 1015.0
20260507152354 13 73 3.2 11.3 0.00 0.03 0.03 80 1015.1
20260507151352 13 91 3.2 11.3 0.00 0.03 0.03 79 1014.8
20260507150355 13 103 6.4 11.3 0.00 0.03 0.03 77 1014.8
20260507144353 13 31 4.8 9.7 0.00 0.03 0.03 73 1014.7
20260507142350 13 305 3.2 11.3 0.00 0.03 0.03 67 1014.6
20260507141350 14 302 0.0 8.0 0.00 0.03 0.03 67 1014.7
20260507135348 14 239 4.8 16.1 0.00 0.03 0.03 62 1014.6
20260507134348 15 327 4.8 14.5 0.00 0.03 0.03 65 1014.5
20260507131350 14 303 3.2 14.5 0.00 0.03 0.03 67 1014.6
20260507130347 15 241 4.8 16.1 0.00 0.03 0.03 66 1014.5
20260507125345 15 281 3.2 16.1 0.00 0.03 0.03 60 1014.4
20260507124344 14 295 3.2 9.7 0.00 0.03 0.03 67 1014.4
20260507123349 14 300 9.7 16.1 0.00 0.03 0.03 69 1014.4
20260507122346 14 292 3.2 8.0 0.00 0.03 0.03 70 1014.3
20260507121346 13 318 6.4 14.5 0.00 0.03 0.03 64 1014.3
20260507120343 13 305 3.2 12.9 0.00 0.03 0.03 73 1014.3
20260507115344 13 287 1.6 11.3 0.00 0.03 0.03 75 1014.2
20260507114343 13 11 3.2 16.1 0.00 0.03 0.03 75 1014.3
20260507113342 13 312 3.2 9.7 0.00 0.03 0.03 75 1014.1
20260507112341 12 333 3.2 16.1 0.00 0.03 0.03 78 1014.2
20260507111341 12 304 4.8 14.5 0.00 0.03 0.03 76 1014.1
20260507110339 12 284 3.2 11.3 0.00 0.03 0.03 78 1014.2
20260507105337 12 287 4.8 16.1 0.00 0.03 0.03 75 1014.2
20260507104335 12 311 8.0 14.5 0.00 0.05 0.03 78 1014.3
20260507103339 12 309 6.4 12.9 0.00 0.05 0.03 78 1014.2
20260507102338 12 304 4.8 12.9 0.00 0.05 0.03 80 1014.2
20260507100338 11 278 4.8 17.7 0.00 0.05 0.03 82 1014.2
20260507094338 11 294 6.4 14.5 0.00 0.05 0.03 83 1013.8
20260507093333 11 46 4.8 11.3 0.00 0.05 0.03 83 1013.7